| time (UTC) | temp C | wind direction | speed KPH | gust KPH | rain 1hr cm | rain 24hr cm | rain mn cm | humidity % | barometer mb |
| 20260505000037 | 22 | 210 | 4.8 | 19.3 | 0.00 | 0.00 | 0.00 | 31 | 1009.2 |
| 20260504235007 | 22 | 214 | 4.8 | 17.7 | 0.00 | 0.00 | 0.00 | 32 | 1009.0 |
| 20260504234023 | 22 | 241 | 9.7 | 19.3 | 0.00 | 0.00 | 0.00 | 30 | 1008.9 |
| 20260504232952 | 23 | 213 | 8.0 | 19.3 | 0.00 | 0.00 | 0.00 | 32 | 1008.8 |
| 20260504230757 | 22 | 208 | 6.4 | 19.3 | 0.00 | 0.00 | 0.00 | 32 | 1008.8 |
| 20260504223548 | 22 | 272 | 6.4 | 19.3 | 0.00 | 0.00 | 0.00 | 32 | 1009.0 |
| 20260504221458 | 23 | 188 | 11.3 | 22.5 | 0.00 | 0.00 | 0.00 | 30 | 1009.3 |
| 20260504220458 | 23 | 224 | 8.0 | 22.5 | 0.00 | 0.00 | 0.00 | 33 | 1009.4 |
| 20260504215455 | 23 | 215 | 9.7 | 19.3 | 0.00 | 0.00 | 0.00 | 33 | 1009.6 |
| 20260504214446 | 23 | 233 | 8.0 | 19.3 | 0.00 | 0.00 | 0.00 | 33 | 1009.6 |
| 20260504213443 | 22 | 217 | 9.7 | 19.3 | 0.00 | 0.00 | 0.00 | 35 | 1009.9 |
| 20260504212449 | 23 | 230 | 9.7 | 20.9 | 0.00 | 0.00 | 0.00 | 33 | 1009.7 |
| 20260504211506 | 22 | 198 | 8.0 | 20.9 | 0.00 | 0.00 | 0.00 | 36 | 1010.0 |
| 20260504210431 | 22 | 221 | 8.0 | 19.3 | 0.00 | 0.00 | 0.00 | 36 | 1010.1 |
| 20260504205420 | 22 | 220 | 8.0 | 17.7 | 0.00 | 0.00 | 0.00 | 38 | 1010.0 |
| 20260504204433 | 22 | 236 | 8.0 | 19.3 | 0.00 | 0.00 | 0.00 | 37 | 1010.0 |
| 20260504203408 | 22 | 182 | 6.4 | 19.3 | 0.00 | 0.00 | 0.00 | 38 | 1010.3 |
| 20260504202402 | 22 | 233 | 9.7 | 17.7 | 0.00 | 0.00 | 0.00 | 40 | 1010.2 |
| 20260504201422 | 22 | 256 | 8.0 | 17.7 | 0.00 | 0.00 | 0.00 | 41 | 1010.2 |
| 20260504200419 | 22 | 263 | 6.4 | 17.7 | 0.00 | 0.00 | 0.00 | 40 | 1010.3 |
| 20260504194339 | 22 | 220 | 9.7 | 20.9 | 0.00 | 0.00 | 0.00 | 40 | 1010.1 |
| 20260504191058 | 22 | 200 | 4.8 | 17.7 | 0.00 | 0.00 | 0.00 | 42 | 1010.0 |
| 20260504184925 | 21 | 192 | 4.8 | 14.5 | 0.00 | 0.00 | 0.00 | 44 | 1010.1 |
| 20260504183910 | 21 | 59 | 6.4 | 16.1 | 0.00 | 0.00 | 0.00 | 44 | 1010.2 |
| 20260504182929 | 21 | 235 | 6.4 | 16.1 | 0.00 | 0.00 | 0.00 | 44 | 1010.3 |
| 20260504181950 | 21 | 136 | 8.0 | 16.1 | 0.00 | 0.00 | 0.00 | 45 | 1010.3 |
| 20260504180935 | 21 | 240 | 8.0 | 16.1 | 0.00 | 0.00 | 0.00 | 45 | 1010.5 |
| 20260504175923 | 21 | 217 | 8.0 | 17.7 | 0.00 | 0.00 | 0.00 | 45 | 1010.3 |
| 20260504174854 | 21 | 263 | 8.0 | 17.7 | 0.00 | 0.00 | 0.00 | 45 | 1010.1 |
| 20260504173840 | 21 | 221 | 3.2 | 14.5 | 0.00 | 0.00 | 0.00 | 44 | 1009.5 |
| 20260504172815 | 20 | 200 | 3.2 | 16.1 | 0.00 | 0.00 | 0.00 | 45 | 1009.4 |
| 20260504171833 | 20 | 207 | 4.8 | 16.1 | 0.00 | 0.00 | 0.00 | 45 | 1009.7 |
| 20260504170805 | 20 | 234 | 6.4 | 16.1 | 0.00 | 0.00 | 0.00 | 45 | 1010.2 |
| 20260504150615 | 21 | 188 | 3.2 | 8.0 | 0.00 | 0.00 | 0.00 | 38 | 1009.7 |
| 20260504140457 | 19 | 120 | 0.0 | 0.0 | 0.00 | 0.00 | 0.00 | 43 | 1009.0 |
| 20260504130139 | 17 | 120 | 0.0 | 0.0 | 0.00 | 0.00 | 0.00 | 45 | 1008.6 |
| 20260504081720 | 21 | 98 | 0.0 | 0.0 | 0.00 | 0.00 | 0.00 | 38 | 1007.6 |
| 20260504080710 | 21 | 174 | 0.0 | 0.0 | 0.00 | 0.00 | 0.00 | 37 | 1007.7 |
| 20260504050409 | 23 | 253 | 3.2 | 14.5 | 0.00 | 0.00 | 0.00 | 24 | 1007.8 |
| 20260504045409 | 24 | 266 | 1.6 | 11.3 | 0.00 | 0.00 | 0.00 | 24 | 1007.7 |
| 20260504043217 | 25 | 191 | 6.4 | 16.1 | 0.00 | 0.00 | 0.00 | 22 | 1007.7 |
| 20260504042235 | 25 | 224 | 3.2 | 12.9 | 0.00 | 0.00 | 0.00 | 21 | 1007.5 |
| 20260504041252 | 25 | 167 | 6.4 | 29.0 | 0.00 | 0.00 | 0.00 | 20 | 1007.2 |
| 20260504040219 | 25 | 224 | 11.3 | 29.0 | 0.00 | 0.00 | 0.00 | 20 | 1007.1 |
| 20260504035156 | 26 | 246 | 9.7 | 22.5 | 0.00 | 0.00 | 0.00 | 20 | 1006.7 |
| 20260504034208 | 26 | 227 | 6.4 | 22.5 | 0.00 | 0.00 | 0.00 | 19 | 1006.5 |
| 20260504033144 | 26 | 217 | 11.3 | 22.5 | 0.00 | 0.00 | 0.00 | 19 | 1006.1 |
| 20260504032133 | 26 | 253 | 11.3 | 24.1 | 0.00 | 0.00 | 0.00 | 19 | 1006.0 |
| 20260504031144 | 26 | 147 | 9.7 | 24.1 | 0.00 | 0.00 | 0.00 | 19 | 1005.9 |
| 20260504030120 | 26 | 206 | 11.3 | 24.1 | 0.00 | 0.00 | 0.00 | 19 | 1005.7 |
| 20260504021737 | 27 | 217 | 14.5 | 27.4 | 0.00 | 0.00 | 0.00 | 18 | 1005.0 |
| 20260504020751 | 27 | 206 | 11.3 | 27.4 | 0.00 | 0.00 | 0.00 | 18 | 1004.8 |
| 20260504015717 | 28 | 217 | 11.3 | 27.4 | 0.00 | 0.00 | 0.00 | 17 | 1004.5 |
| 20260504014654 | 28 | 188 | 12.9 | 30.6 | 0.00 | 0.00 | 0.00 | 17 | 1004.2 |
| 20260504013633 | 28 | 229 | 14.5 | 30.6 | 0.00 | 0.00 | 0.00 | 16 | 1004.2 |
| 20260504012618 | 29 | 221 | 16.1 | 30.6 | 0.00 | 0.00 | 0.00 | 16 | 1004.1 |
| 20260504011602 | 29 | 278 | 17.7 | 30.6 | 0.00 | 0.00 | 0.00 | 16 | 1004.1 |
| 20260504010626 | 30 | 224 | 17.7 | 30.6 | 0.00 | 0.00 | 0.00 | 15 | 1004.2 |
| 20260504005650 | 30 | 195 | 14.5 | 24.1 | 0.00 | 0.00 | 0.00 | 15 | 1004.0 |
| 20260504003510 | 31 | 233 | 11.3 | 22.5 | 0.00 | 0.00 | 0.00 | 14 | 1004.0 |
| 20260504002435 | 31 | 174 | 6.4 | 17.7 | 0.00 | 0.00 | 0.00 | 14 | 1004.0 |
| 20260504001431 | 31 | 190 | 9.7 | 27.4 | 0.00 | 0.00 | 0.00 | 15 | 1004.1 |